Location: ?????????
(38.5999°N, 22.7695°E)
Time: 11:57:11
(UTC+00:00)

Meteor 1-28 Rocket - Pass Details

Date: 23 May 2024
Orbit: 474 x 489 km, 97.5° (Epoch: 18 June)

Event Time Altitude Azimuth Distance (km) Brightness Sun altitude
Exits shadow 02:00:52 18° 250° (WSW) 1,227 4.5 -12.2°
Maximum altitude 02:01:32 19° 265° (W) 1,193 4.6 -12.1°
Drops below altitude 10° 02:04:10 10° 313° (NW) 1,660 5.7 -11.7°
Sets 02:06:40 0° 331° (NNW) 2,541 6.8 -11.4°
